カタログに戻る

COSMOS 1249 COOLANT

運用中LEO
NORAD 26508·DEBRIS·🇷🇺 Russia

打ち上げ Mar 5, 1981 から Baikonur Cosmodrome

Loading…

次のパス (今後24時間)

TLE

経年Source: Space-Track

元期: Sep 11, 2026, 03:28 UTC

1 26508U 81021K   26254.14468840  .00000050  00000-0  10851-3 0  9990
2 26508  64.9649  75.7547 0056847 220.8092 253.9083 13.92279453670636

AllMySatでCOSMOS 1249 COOLANTをリアルタイム追跡

Download on the App Store